This is the latest recevied weather packets stored in our database for station/object IU2PLZ-12. If no packets are shown the sender has not sent any weather packets the latest 10 day(s).
| Time | Temp. | Humidity | Pressure | Rain* | Wind** | Luminosity | Snow |
|---|---|---|---|---|---|---|---|
| 1776953415 | 32.22° C | 22% | 1001.9 hPa | - | - | - | - |
| 1776952515 | 31.11° C | 23% | 1002.1 hPa | - | - | - | - |
| 1776951615 | 30° C | 24% | 1002.4 hPa | - | - | - | - |
| 1776950714 | 30° C | 25% | 1002.7 hPa | - | - | - | - |
| 1776949814 | 29.44° C | 26% | 1002.9 hPa | - | - | - | - |
| 1776948914 | 29.44° C | 26% | 1003 hPa | - | - | - | - |
| 1776948014 | 27.78° C | 27% | 1003.2 hPa | - | - | - | - |
| 1776947113 | 27.22° C | 28% | 1003.6 hPa | - | - | - | - |
| 1776946213 | 26.67° C | 29% | 1003.7 hPa | - | - | - | - |
| 1776945313 | 26.67° C | 29% | 1003.8 hPa | - | - | - | - |
| 1776944413 | 25.56° C | 30% | 1003.9 hPa | - | - | - | - |
| 1776943513 | 25° C | 30% | 1004 hPa | - | - | - | - |
| 1776942612 | 25° C | 30% | 1004.4 hPa | - | - | - | - |
| 1776941712 | 25° C | 31% | 1004.6 hPa | - | - | - | - |
| 1776940812 | 25° C | 30% | 1004.9 hPa | - | - | - | - |
| 1776939912 | 25.56° C | 30% | 1005.1 hPa | - | - | - | - |
| 1776939012 | 25.56° C | 29% | 1005.3 hPa | - | - | - | - |
| 1776938112 | 27.22° C | 28% | 1005.5 hPa | - | - | - | - |
| 1776937211 | 27.78° C | 28% | 1005.7 hPa | - | - | - | - |
| 1776936311 | 27.78° C | 27% | 1005.9 hPa | - | - | - | - |
| 1776935411 | 27.78° C | 28% | 1006 hPa | - | - | - | - |
| 1776934511 | 29.44° C | 27% | 1006.1 hPa | - | - | - | - |
| 1776933610 | 28.89° C | 27% | 1006.2 hPa | - | - | - | - |
| 1776932710 | 29.44° C | 28% | 1006.3 hPa | - | - | - | - |
| 1776931809 | 28.33° C | 29% | 1006.4 hPa | - | - | - | - |
* Rain since midnight (hover to see other rain measurements)
** Current wind speed in m/s (hover to see current wind gust speed)